This is the latest recevied weather packets stored in our database for station/object K5RWS. If no packets are shown the sender has not sent any weather packets the latest 10 day(s).
| Time | Temp. | Humidity | Pressure | Rain* | Wind** | Luminosity | Snow |
|---|---|---|---|---|---|---|---|
| 1778025942 | 17.78° C | 39% | 1011.8 hPa | 0 mm | - | 151 W/m² | - |
| 1778025639 | 17.78° C | 38% | 1011.6 hPa | 0 mm | - | 186 W/m² | - |
| 1778025337 | 17.78° C | 38% | 1011.8 hPa | 0 mm | - | 221 W/m² | - |
| 1778025033 | 17.78° C | 39% | 1011.9 hPa | 0 mm | - | 216 W/m² | - |
| 1778024731 | 17.22° C | 40% | 1011.5 hPa | 0 mm | - | 220 W/m² | - |
| 1778024427 | 17.78° C | 39% | 1011.9 hPa | 0 mm | - | 236 W/m² | - |
| 1778024125 | 17.22° C | 39% | 1011.5 hPa | 0 mm | - | 261 W/m² | - |
| 1778023822 | 17.78° C | 39% | 1012.1 hPa | 0 mm | - | 292 W/m² | - |
| 1778023520 | 17.22° C | 38% | 1011.9 hPa | 0 mm | - | 340 W/m² | - |
| 1778023217 | 16.67° C | 40% | 1011.5 hPa | 0 mm | - | 305 W/m² | - |
| 1778022914 | 16.67° C | 42% | 1011.9 hPa | 0 mm | - | 336 W/m² | - |
| 1778022613 | 17.22° C | 42% | 1012.1 hPa | 0 mm | - | 360 W/m² | - |
| 1778022310 | 16.11° C | 47% | 1012.2 hPa | 0 mm | - | 366 W/m² | - |
| 1778022006 | 16.11° C | 47% | 1012 hPa | 0 mm | - | 375 W/m² | - |
| 1778021703 | 16.11° C | 50% | 1012.2 hPa | 0 mm | - | 364 W/m² | - |
| 1778021399 | 15.56° C | 51% | 1012.3 hPa | 0 mm | - | 328 W/m² | - |
| 1778021096 | 15.56° C | 53% | 1012.5 hPa | 0 mm | - | 395 W/m² | - |
| 1778020793 | 15.56° C | 49% | 1012.5 hPa | 0 mm | - | 413 W/m² | - |
| 1778020490 | 16.11° C | 50% | 1012.6 hPa | 0 mm | - | 437 W/m² | - |
| 1778020186 | 16.67° C | 47% | 1012.7 hPa | 0 mm | - | 537 W/m² | - |
| 1778019883 | 16.67° C | 45% | 1012.8 hPa | 0 mm | - | 299 W/m² | - |
| 1778019579 | 17.22° C | 43% | 1012.6 hPa | 0 mm | - | 230 W/m² | - |
| 1778019276 | 17.22° C | 42% | 1012.7 hPa | 0 mm | - | 316 W/m² | - |
| 1778018973 | 17.78° C | 42% | 1012.7 hPa | 0 mm | - | 603 W/m² | - |
| 1778018670 | 17.22° C | 42% | 1012.6 hPa | 0 mm | - | 644 W/m² | - |
* Rain latest hour (hover to see other rain measurements)
** Current wind speed in m/s (hover to see current wind gust speed)